Lid_Strength_Index
14 13 14 15 15 14 14 14 14 14 13 13 13 13 13 13 13 14 15 14 14 14 15 15 15 15 14 15 15 15 15 16 17 19 17 16 15 16 16 17 17 17 17
14 14 14 14 14 15 15 15 14 13 13 13 13 14 14 13 14 14 14 14 15 15 15 15 15 14 15 16 16 14 14 16 17 19 18 17 16 15 16 18 18 17 18
14 15 15 15 15 15 16 16 15 14 14 13 13 13 14 14 14 14 13 13 14 14 14 15 14 15 15 14 15 15 14 15 16 19 19 18 18 16 18 19 19 19 18
13 14 15 15 15 15 15 16 16 15 15 15 14 13 12 13 14 14 14 14 13 13 13 13 13 14 14 14 14 15 15 15 15 18 19 18 18 16 17 19 19 18 19
13 14 14 14 13 14 14 15 15 15 14 14 14 14 13 13 12 13 13 15 14 14 13 13 13 13 12 13 14 14 14 15 15 15 18 20 19 18 18 18 19 19 19
13 14 13 13 13 14 14 14 14 14 14 14 14 14 14 13 11 10 10 12 12 13 13 13 13 13 13 11 11 11 12 14 14 14 15 17 18 18 17 18 18 19 20
14 13 13 13 13 13 13 14 14 15 15 15 15 14 14 14 11 10 9 11 12 12 12 12 12 13 13 14 12 11 11 10 11 13 14 16 17 17 17 18 18 17 17
12 12 12 12 13 13 13 14 14 14 15 15 15 15 15 14 11 11 10 11 12 11 11 12 12 12 12 13 14 14 13 13 12 12 13 13 14 16 16 16 16 16 18
11 11 12 12 13 12 13 13 13 13 14 15 15 15 16 15 13 12 11 13 12 12 11 11 11 11 10 9 12 14 14 14 12 11 11 11 11 12 15 16 17 19 22
12 12 12 13 14 14 14 14 13 14 14 14 14 14 15 16 13 12 12 13 14 13 12 12 11 11 9 9 11 12 15 15 14 14 13 12 11 12 13 15 16 18 18
14 15 16 16 17 17 17 17 17 17 17 17 17 17 17 16 16 13 12 13 13 13 13 12 11 9 9 8 8 11 12 11 13 13 14 14 14 15 14 14 14 15 17
17 18 19 20 20 19 20 20 20 20 20 20 20 19 18 17 15 14 13 12 11 13 12 11 11 8 8 8 9 9 9 10 12 13 14 15 15 16 15 15 15 15 15
20 21 21 21 21 21 22 22 22 22 22 22 21 21 20 18 18 15 14 13 12 13 12 10 9 8 8 8 8 8 9 10 12 13 14 15 15 15 15 16 16 18 18
22 22 21 22 22 22 22 22 23 23 24 23 23 23 23 22 21 19 18 17 15 14 11 11 10 9 9 9 9 8 8 9 11 12 13 14 14 15 16 16 18 18 19
21 21 22 22 23 23 22 22 21 20 20 21 21 20 21 20 19 16 16 17 16 15 14 13 13 13 13 12 10 9 9 9 10 11 12 14 15 16 17 17 18 19 20
22 22 23 24 24 23 23 23 18 16 15 15 14 16 17 15 14 14 14 13 13 12 14 15 15 14 13 13 11 10 10 10 10 10 12 13 15 16 18 19 19 20 20
23 23 23 24 24 24 23 23 24 20 15 15 15 14 14 14 13 13 13 13 13 12 15 14 14 13 12 12 11 11 12 10 9 10 12 13 15 17 19 20 21 20 21
21 22 23 24 24 24 23 23 22 22 22 21 17 15 14 12 12 12 12 12 16 15 16 15 14 13 11 11 11 11 11 10 10 11 12 14 15 17 19 20 20 21 21
22 22 22 23 23 23 22 22 21 21 21 20 19 17 16 13 12 12 11 15 15 16 16 14 13 11 10 10 10 10 9 11 12 13 14 15 15 17 18 19 20 21 21
22 22 21 22 22 23 23 22 22 21 20 19 19 18 16 16 17 17 15 15 13 13 13 13 11 9 9 9 9 9 11 12 13 13 14 15 16 17 18 20 21 22 22
21 22 22 22 23 22 21 21 22 21 21 21 20 19 14 18 18 17 17 16 16 15 11 11 10 8 9 10 10 10 11 12 13 14 15 16 17 18 18 19 21 21 22
23 23 23 23 23 22 22 21 21 21 22 22 21 20 17 20 19 19 18 18 17 16 15 13 13 12 12 12 11 12 13 14 15 16 16 17 18 19 20 21 21 22 22
23 24 24 24 23 23 23 22 22 22 22 22 22 22 22 21 21 20 20 19 18 18 16 16 15 15 14 14 13 13 15 16 16 17 18 19 20 20 20 21 22 23 23
25 24 24 24 24 24 24 23 22 22 22 22 22 22 22 22 22 21 21 20 19 19 18 18 17 17 16 16 16 15 16 16 16 17 18 19 20 21 21 22 22 22 22
27 26 26 25 25 25 24 24 23 23 22 22 22 22 22 22 22 22 22 21 21 21 20 20 19 19 18 18 17 17 16 17 17 18 18 19 20 21 21 21 22 22 21
28 28 29 27 26 25 25 25 24 24 24 23 23 22 22 23 22 22 22 22 22 22 21 21 20 20 18 18 18 18 17 17 18 18 19 20 21 21 21 22 22 22 22